Location: Marcé
(47.5801°N, 0.3280°W)
Time: 08:57:24
(UTC+01:00)

Explorer 7 - Pass Details

Date: 03 December 2021
Orbit: 483 x 674 km, 50.3° (Epoch: 24 January)

Event Time Altitude Azimuth Distance (km) Brightness Sun altitude
Rises 11:10:54 0° 288° (WNW) 2,670 9.9 16.7°
Reaches altitude 10° 11:13:10 10° 289° (WNW) 1,751 9.0 16.9°
Maximum altitude 11:17:08 78° 17° (NNE) 517 6.9 17.1°
Drops below altitude 10° 11:20:55 10° 104° (ESE) 1,677 9.9 17.4°
Sets 11:23:03 0° 105° (ESE) 2,546 10.8 17.5°
